Back to catalog

METEOR 2-5 DEB

AlivePO
NORAD 38274·DEBRIS·🇷🇺 Russia

Launched Oct 31, 1979 from Plesetsk Cosmodrome

Loading…

Next Passes (next 24 hours)

TLE

AgingSource: Space-Track

Epoch: Sep 7, 2026, 16:09 UTC

1 38274U 79095BU  26250.67340291  .00005329  00000-0  13898-2 0  9991
2 38274  81.1881  20.8531 0015564  82.5767 277.7193 14.49342643624444

Track METEOR 2-5 DEB in real time with AllMySat

Download on the App Store